Location: Calvatone
(45.1167°N, 10.4333°E)
Time: 03:23:19
(UTC+00:00)

XW-2D - Visible Passes

Search period start: 07 December 2023 00:00
Search period end: 17 December 2023 00:00
Orbit: 454 x 463 km, 97.5° (Epoch: 06 December)

Date Brightness Start Highest point End Pass type
(mag) Time Alt. Az. Time Alt. Az. Time Alt. Az.
07 Dec ? 05:00:41 10° ENE 05:02:28 13° E 05:04:15 10° ESE visible
07 Dec ? 17:06:03 10° SSE 17:09:30 86° WSW 17:13:00 10° NNW visible
08 Dec ? 05:59:57 10° NNE 06:03:26 77° ESE 06:06:53 10° S visible
08 Dec ? 16:34:12 10° SE 16:37:22 35° ENE 16:40:35 10° N visible
08 Dec ? 18:08:23 10° SW 18:10:26 15° W 18:12:30 10° NW visible
09 Dec ? 05:28:03 10° NE 05:31:07 28° E 05:34:09 10° SSE visible
09 Dec ? 16:03:14 10° ESE 16:05:21 15° ENE 16:07:29 10° NNE visible
09 Dec ? 17:34:46 10° SSW 17:37:59 35° W 17:41:14 10° NNW visible
10 Dec ? 04:57:14 10° ENE 04:58:37 12° E 04:59:59 10° ESE visible
10 Dec ? 17:02:11 10° SSE 17:05:39 83° ENE 17:09:08 10° N visible
11 Dec ? 05:56:03 10° NNE 05:59:30 67° E 06:02:56 10° S visible
11 Dec ? 16:30:20 10° SE 16:33:26 31° ENE 16:36:32 10° N visible
11 Dec ? 18:04:07 10° SW 18:06:25 17° W 18:08:44 10° NW visible
12 Dec ? 05:24:08 10° NE 05:27:04 25° E 05:29:58 10° SSE visible
12 Dec ? 17:30:37 10° S 17:33:53 41° W 17:37:12 10° NNW visible
13 Dec ? 04:53:44 10° ENE 04:54:26 10° E 04:55:07 10° ESE visible
13 Dec ? 16:58:01 10° SSE 17:01:28 72° ENE 17:04:56 10° N visible
14 Dec ? 05:51:50 10° NNE 05:55:16 58° E 05:58:39 10° S visible
14 Dec ? 16:26:12 10° SE 16:29:10 27° ENE 16:32:10 10° N visible
14 Dec ? 17:59:34 10° SW 18:02:06 19° W 18:04:38 10° NW visible
15 Dec ? 05:19:55 10° NE 05:22:41 22° E 05:25:27 10° SSE visible
15 Dec ? 17:26:08 10° S 17:29:28 47° W 17:32:51 10° NNW visible
16 Dec ? 16:53:34 10° SSE 16:56:59 61° ENE 17:00:25 10° N visible
